• In Deutschland
  • Länderverzeichnis
  • Für 7 Tage
  • Wassertemperatur
  • Satellitenkarten
  • Wetterkarte
  • Widgets
  • user-avatar
    Anmelden

    Stündliche Wetter Suhoy

    Heute, 20 September, Donnerstag

    Zeit Temperatur Niederschläge Wind Luftdruck Luftfeuchtigkeit
    00:00 +17°C° 0 mm 0 m/S 764 mmHg 50%
    01:00 +18°C° 0 mm 1 m/S 764 mmHg 51%
    02:00 +18°C° 0 mm 1 m/S 764 mmHg 53%
    03:00 +18°C° 0 mm 1 m/S 764 mmHg 54%
    04:00 +16°C° 0 mm 1 m/S 764 mmHg 55%
    05:00 +16°C° 0 mm 1 m/S 764 mmHg 56%
    06:00 +16°C° 0 mm 1 m/S 764 mmHg 57%
    07:00 +19°C° 0 mm 1 m/S 764 mmHg 52%
    08:00 +21°C° 0 mm 1 m/S 764 mmHg 47%
    09:00 +23°C° 0 mm 1 m/S 764 mmHg 41%
    10:00 +24°C° 0 mm 1 m/S 764 mmHg 38%
    11:00 +26°C° 0 mm 2 m/S 764 mmHg 34%
    12:00 +27°C° 0 mm 2 m/S 763 mmHg 31%
    13:00 +28°C° 0 mm 2 m/S 763 mmHg 30%
    14:00 +29°C° 0 mm 2 m/S 763 mmHg 28%
    15:00 +29°C° 0 mm 2 m/S 762 mmHg 27%
    16:00 +28°C° 0 mm 2 m/S 762 mmHg 29%
    17:00 +27°C° 0 mm 1 m/S 762 mmHg 32%
    18:00 +26°C° 0 mm 1 m/S 762 mmHg 35%
    19:00 +25°C° 0 mm 1 m/S 762 mmHg 37%
    20:00 +24°C° 0 mm 1 m/S 762 mmHg 39%
    21:00 +23°C° 0 mm 1 m/S 762 mmHg 41%
    22:00 +22°C° 0 mm 1 m/S 762 mmHg 42%
    23:00 +22°C° 0 mm 1 m/S 762 mmHg 44%

    Morgen, 21 September, Freitag

    Zeit Temperatur Niederschläge Wind Luftdruck Luftfeuchtigkeit
    00:00 +21°C° 0 mm 1 m/S 762 mmHg 45%
    01:00 +21°C° 0 mm 1 m/S 762 mmHg 47%
    02:00 +21°C° 0 mm 1 m/S 761 mmHg 49%
    03:00 +20°C° 0 mm 1 m/S 761 mmHg 50%
    04:00 +20°C° 0 mm 1 m/S 761 mmHg 52%
    05:00 +20°C° 0 mm 1 m/S 762 mmHg 55%
    06:00 +19°C° 0 mm 1 m/S 762 mmHg 57%
    07:00 +21°C° 0 mm 1 m/S 762 mmHg 53%
    08:00 +23°C° 0 mm 2 m/S 762 mmHg 49%
    09:00 +25°C° 0 mm 2 m/S 762 mmHg 46%
    10:00 +27°C° 0 mm 2 m/S 762 mmHg 42%
    11:00 +28°C° 0 mm 2 m/S 762 mmHg 39%
    12:00 +30°C° 0 mm 3 m/S 762 mmHg 36%
    13:00 +30°C° 0 mm 3 m/S 762 mmHg 34%
    14:00 +31°C° 0 mm 3 m/S 761 mmHg 32%
    15:00 +31°C° 0 mm 3 m/S 761 mmHg 30%
    16:00 +30°C° 0 mm 3 m/S 761 mmHg 33%
    17:00 +29°C° 0 mm 3 m/S 761 mmHg 36%
    18:00 +28°C° 0 mm 2 m/S 761 mmHg 38%
    19:00 +26°C° 0 mm 3 m/S 762 mmHg 41%
    20:00 +25°C° 0 mm 3 m/S 762 mmHg 44%
    21:00 +24°C° 0 mm 3 m/S 762 mmHg 47%
    22:00 +22°C° 0 mm 3 m/S 762 mmHg 49%
    23:00 +21°C° 0 mm 3 m/S 762 mmHg 51%

    übermorgen, 22 September, Samstag

    Zeit Temperatur Niederschläge Wind Luftdruck Luftfeuchtigkeit
    00:00 +20°C° 0 mm 3 m/S 762 mmHg 53%
    01:00 +20°C° 0 mm 3 m/S 762 mmHg 55%
    02:00 +19°C° 0 mm 3 m/S 763 mmHg 57%
    03:00 +19°C° 0 mm 3 m/S 763 mmHg 59%
    04:00 +18°C° 0 mm 3 m/S 763 mmHg 62%
    05:00 +18°C° 0 mm 3 m/S 763 mmHg 65%
    06:00 +17°C° 0 mm 3 m/S 763 mmHg 68%
    07:00 +19°C° 0 mm 3 m/S 763 mmHg 62%
    08:00 +21°C° 0 mm 3 m/S 763 mmHg 57%
    09:00 +23°C° 0 mm 4 m/S 763 mmHg 51%
    10:00 +26°C° 0 mm 4 m/S 763 mmHg 46%
    11:00 +27°C° 0 mm 3 m/S 763 mmHg 40%
    12:00 +29°C° 0 mm 3 m/S 762 mmHg 35%
    13:00 +29°C° 0 mm 3 m/S 762 mmHg 32%
    14:00 +30°C° 0 mm 3 m/S 762 mmHg 30%
    15:00 +30°C° 0 mm 3 m/S 761 mmHg 28%
    16:00 +29°C° 0 mm 3 m/S 761 mmHg 30%
    17:00 +28°C° 0 mm 3 m/S 761 mmHg 33%
    18:00 +27°C° 0 mm 3 m/S 761 mmHg 35%
    19:00 +26°C° 0 mm 3 m/S 761 mmHg 38%
    20:00 +24°C° 0 mm 3 m/S 761 mmHg 41%
    21:00 +22°C° 0 mm 3 m/S 761 mmHg 43%
    22:00 +22°C° 0 mm 3 m/S 761 mmHg 44%
    23:00 +21°C° 0 mm 3 m/S 761 mmHg 45%

    23 September, Sonntag

    Zeit Temperatur Niederschläge Wind Luftdruck Luftfeuchtigkeit
    00:00 +21°C° 0 mm 3 m/S 761 mmHg 46%
    01:00 +21°C° 0 mm 3 m/S 761 mmHg 47%
    02:00 +20°C° 0 mm 3 m/S 761 mmHg 48%
    03:00 +20°C° 0 mm 3 m/S 760 mmHg 49%
    04:00 +19°C° 0 mm 3 m/S 760 mmHg 50%
    05:00 +19°C° 0 mm 3 m/S 760 mmHg 51%
    06:00 +19°C° 0 mm 3 m/S 760 mmHg 53%
    07:00 +21°C° 0 mm 3 m/S 760 mmHg 49%
    08:00 +23°C° 0 mm 4 m/S 760 mmHg 45%
    09:00 +25°C° 0 mm 4 m/S 760 mmHg 41%
    10:00 +27°C° 0 mm 5 m/S 760 mmHg 37%
    11:00 +29°C° 0 mm 5 m/S 759 mmHg 33%
    12:00 +30°C° 0 mm 5 m/S 759 mmHg 29%
    13:00 +32°C° 0 mm 5 m/S 758 mmHg 28%
    14:00 +32°C° 0 mm 5 m/S 758 mmHg 27%
    15:00 +32°C° 0 mm 4 m/S 757 mmHg 25%
    16:00 +30°C° 0 mm 4 m/S 757 mmHg 28%
    17:00 +29°C° 0 mm 3 m/S 757 mmHg 30%
    18:00 +27°C° 0 mm 3 m/S 756 mmHg 32%
    19:00 +27°C° 0 mm 4 m/S 757 mmHg 34%
    20:00 +26°C° 0 mm 4 m/S 757 mmHg 36%
    21:00 +25°C° 0 mm 5 m/S 757 mmHg 37%
    22:00 +22°C° 0 mm 6 m/S 757 mmHg 46%
    23:00 +20°C° 0 mm 6 m/S 758 mmHg 55%

    24 September, Montag

    Zeit Temperatur Niederschläge Wind Luftdruck Luftfeuchtigkeit
    00:00 +18°C° 0 mm 7 m/S 758 mmHg 64%
    01:00 +16°C° 0 mm 7 m/S 759 mmHg 63%
    02:00 +15°C° 0 mm 6 m/S 759 mmHg 63%
    03:00 +14°C° 0 mm 6 m/S 760 mmHg 62%
    04:00 +13°C° 0 mm 5 m/S 760 mmHg 65%
    05:00 +12°C° 0 mm 4 m/S 761 mmHg 67%
    06:00 +11°C° 0 mm 3 m/S 761 mmHg 69%
    07:00 +13°C° 0 mm 3 m/S 761 mmHg 64%
    08:00 +14°C° 0 mm 3 m/S 762 mmHg 58%
    09:00 +16°C° 0 mm 3 m/S 762 mmHg 53%
    10:00 +18°C° 0 mm 2 m/S 762 mmHg 46%
    11:00 +19°C° 0 mm 2 m/S 762 mmHg 39%
    12:00 +22°C° 0 mm 1 m/S 761 mmHg 32%
    13:00 +22°C° 0 mm 1 m/S 761 mmHg 29%
    14:00 +23°C° 0 mm 1 m/S 761 mmHg 26%
    15:00 +22°C° 0 mm 0 m/S 761 mmHg 24%
    16:00 +23°C° 0 mm 1 m/S 760 mmHg 25%
    17:00 +22°C° 0 mm 1 m/S 760 mmHg 26%
    18:00 +21°C° 0 mm 1 m/S 760 mmHg 28%
    19:00 +19°C° 0 mm 2 m/S 760 mmHg 29%
    20:00 +18°C° 0 mm 3 m/S 759 mmHg 30%
    21:00 +17°C° 0 mm 3 m/S 759 mmHg 32%
    22:00 +17°C° 0 mm 3 m/S 759 mmHg 32%
    23:00 +17°C° 0 mm 3 m/S 758 mmHg 33%

    25 September, Dienstag

    Zeit Temperatur Niederschläge Wind Luftdruck Luftfeuchtigkeit
    00:00 +17°C° 0 mm 4 m/S 758 mmHg 34%
    01:00 +17°C° 0 mm 4 m/S 757 mmHg 34%
    02:00 +17°C° 0 mm 4 m/S 757 mmHg 34%
    03:00 +17°C° 0 mm 4 m/S 757 mmHg 35%
    04:00 +17°C° 0 mm 4 m/S 756 mmHg 37%
    05:00 +17°C° 0 mm 4 m/S 756 mmHg 39%
    06:00 +17°C° 0 mm 4 m/S 756 mmHg 41%
    07:00 +18°C° 0 mm 4 m/S 756 mmHg 42%
    08:00 +20°C° 0 mm 5 m/S 756 mmHg 44%
    09:00 +22°C° 0 mm 5 m/S 756 mmHg 46%
    10:00 +25°C° 0 mm 5 m/S 755 mmHg 45%
    11:00 +26°C° 0 mm 5 m/S 755 mmHg 43%
    12:00 +28°C° 0 mm 5 m/S 755 mmHg 42%
    13:00 +29°C° 0 mm 5 m/S 755 mmHg 41%
    14:00 +29°C° 0 mm 5 m/S 755 mmHg 40%
    15:00 +30°C° 0 mm 6 m/S 754 mmHg 39%
    16:00 +28°C° 0 mm 5 m/S 755 mmHg 42%
    17:00 +27°C° 0 mm 5 m/S 755 mmHg 46%
    18:00 +25°C° 0 mm 5 m/S 755 mmHg 49%
    19:00 +23°C° 0 mm 5 m/S 756 mmHg 47%
    20:00 +22°C° 0 mm 5 m/S 756 mmHg 45%
    21:00 +21°C° 0 mm 5 m/S 757 mmHg 43%
    22:00 +20°C° 0.1 mm 4 m/S 757 mmHg 43%
    23:00 +19°C° 0.1 mm 3 m/S 757 mmHg 43%
    Mehr zeigen